Weather History for Osan AB, South Korea

Change the Weather History Date:

Sunday, November 24, 2013

  Actual Average Record
Temperature  
Mean Temperature 42 °F -  
Max Temperature 53 °F 42 °F 64 °F (1997)
Min Temperature 31 °F 22 °F 24 °F (2011)
Degree Days  
Heating Degree Days 23    
Moisture  
Dew Point 38 °F    
Average Humidity 87    
Maximum Humidity 100    
Minimum Humidity 56    
Precipitation  
Precipitation 0.08 in - - ()
Sea Level Pressure  
Sea Level Pressure 29.93 in    
Wind  
Wind Speed 7 mph ()    
Max Wind Speed 22 mph    
Max Gust Speed 18 mph    
Visibility 2.9 miles    
Events Rain    
Averages and records for this station are not official NWS values.
T = Trace of Precipitation, MM = Missing Value Source: Averaged Metar Reports

Daily Weather History Graph

Daily Weather History Graph

Search for Another Location

Airport:

Trip Planner

Search our weather history database for the weather conditions in past years. The results will help you decide how hot, cold, wet, or windy it might be!

Date:

Astronomy

Nov. 24, 2013 Rise Set
Actual Time 7:19 AM KST 5:17 PM KST
Civil Twilight 6:51 AM KST 5:45 PM KST
Nautical Twilight 6:19 AM KST 6:17 PM KST
Astronomical Twilight 5:48 AM KST 6:48 PM KST
Moon 11:04 PM KST (11/24) 11:52 AM KST (11/24)
Length of Visible Light 10h 54m
Length of Day
9h 57m
Waning Gibbous, 66% of the Moon is Illuminated
Nov 24
Waning Gibbous
Nov 26
Last Quarter
Dec 3
New
Dec 10
First Quarter
Dec 17
Full

Hourly Weather History & Observations

Time (KST) Temp. Windchill Dew Point Humidity Pressure Visibility Wind Dir Wind Speed Gust Speed Precip Events Conditions
12:08 AM 35.6 °F 29.9 °F 32.0 °F 87% 30.22 in 3.0 mi East 6.9 mph - N/A   Clear
12:18 AM 35.6 °F 31.7 °F 32.0 °F 87% 30.22 in 2.5 mi East 4.6 mph - N/A   Clear
12:58 AM 34.5 °F 29.4 °F 32.9 °F 94% 30.22 in 2.5 mi ENE 5.8 mph - N/A   Clear
1:58 AM 34.3 °F 29.2 °F 32.7 °F 94% 30.22 in 2.5 mi East 5.8 mph - N/A   Clear
2:08 AM 33.8 °F 30.8 °F 32.0 °F 93% 30.21 in 2.0 mi ENE 3.5 mph - N/A   Clear
2:58 AM 34.0 °F 28.8 °F 32.7 °F 95% 30.21 in 2.0 mi East 5.8 mph - N/A   Clear
3:58 AM 34.2 °F 29.0 °F 33.3 °F 97% 30.20 in 2.0 mi East 5.8 mph - N/A   Clear
4:08 AM 35.6 °F 30.7 °F 33.8 °F 93% 30.19 in 2.5 mi East 5.8 mph - N/A   Clear
4:58 AM 34.3 °F 31.4 °F 33.1 °F 95% 30.21 in 2.5 mi ENE 3.5 mph - N/A   Clear
5:08 AM 32.0 °F 27.5 °F 32.0 °F 100% 30.20 in 2.0 mi East 4.6 mph - N/A   Clear
5:18 AM 32.0 °F 26.4 °F 32.0 °F 100% 30.19 in 1.8 mi East 5.8 mph - N/A   Clear
5:28 AM 32.0 °F - 32.0 °F 100% 30.20 in 1.8 mi ENE 2.3 mph - N/A   Clear
5:38 AM 32.0 °F 27.5 °F 32.0 °F 100% 30.19 in 1.5 mi East 4.6 mph - N/A   Clear
5:58 AM 31.6 °F 27.0 °F 30.9 °F 97% 30.20 in 1.5 mi East 4.6 mph - N/A   Clear
6:08 AM 32.0 °F 26.4 °F 32.0 °F 100% 30.19 in 1.8 mi East 5.8 mph - N/A   Clear
6:09 AM 32.0 °F 26.4 °F 32.0 °F 100% 30.19 in 1.8 mi East 5.8 mph - N/A   Partly Cloudy
6:58 AM 32.0 °F 24.8 °F 32.0 °F 100% 30.19 in 1.5 mi East 8.1 mph - N/A   Scattered Clouds
7:58 AM 35.8 °F 29.4 °F 34.2 °F 94% 30.17 in 1.5 mi East 8.1 mph - N/A   Scattered Clouds
8:48 AM 39.2 °F 33.6 °F 35.6 °F 87% 30.17 in 1.8 mi East 8.1 mph - N/A   Scattered Clouds
8:58 AM 39.4 °F 33.8 °F 36.1 °F 88% 30.17 in 1.8 mi East 8.1 mph - N/A   Scattered Clouds
9:08 AM 41.0 °F 35.2 °F 37.4 °F 87% 30.16 in 2.0 mi East 9.2 mph - N/A   Clear
9:18 AM 41.0 °F 35.2 °F 37.4 °F 87% 30.15 in 2.5 mi East 9.2 mph - N/A   Haze
9:58 AM 44.4 °F 39.0 °F 38.5 °F 80% 30.14 in 2.5 mi East 10.4 mph - N/A   Clear
10:08 AM 46.4 °F 41.9 °F 39.2 °F 76% 30.13 in 3.0 mi East 9.2 mph - N/A   Haze
10:58 AM 49.8 °F - 39.9 °F 69% 30.09 in 3.0 mi East 10.4 mph - N/A   Haze
11:58 AM 53.2 °F - 37.8 °F 56% 30.04 in 5.0 mi East 13.8 mph - N/A   Haze
12:58 PM 51.1 °F - 36.5 °F 57% 29.99 in 3.0 mi East 9.2 mph - N/A   Haze
1:58 PM 51.1 °F - 36.5 °F 57% 29.92 in 3.0 mi East 6.9 mph - N/A   Haze
2:59 PM 51.1 °F - 36.5 °F 57% 29.91 in 3.0 mi NE 4.6 mph - N/A   Haze
3:20 PM 51.8 °F - 37.4 °F 58% 29.90 in 4.0 mi ENE 5.8 mph - N/A Rain Light Rain
3:43 PM 50.0 °F - 39.2 °F 66% 29.88 in 3.0 mi ENE 8.1 mph - N/A Rain Light Rain
3:56 PM 48.2 °F - 39.2 °F 71% 29.87 in 3.0 mi ENE 8.1 mph - N/A Rain Light Rain
4:21 PM 46.4 °F 43.5 °F 42.8 °F 87% 29.85 in 2.5 mi East 5.8 mph - N/A Rain Light Rain
4:57 PM 46.4 °F 42.9 °F 42.8 °F 87% 29.85 in 2.0 mi East 6.9 mph - N/A Rain Light Rain
5:55 PM 45.1 °F 42.8 °F 43.0 °F 92% 29.81 in 2.0 mi East 4.6 mph - N/A Rain Light Rain
6:43 PM 44.6 °F 39.2 °F 42.8 °F 93% 29.78 in 3.0 mi East 10.4 mph - N/A Rain Light Rain
6:45 PM 44.6 °F 39.7 °F 42.8 °F 93% 29.78 in 3.0 mi ESE 9.2 mph - N/A Rain Light Rain
6:56 PM 44.6 °F 38.8 °F 41.0 °F 87% 29.77 in 4.0 mi East 11.5 mph - N/A Rain Light Rain
7:22 PM 44.6 °F 38.1 °F 41.0 °F 87% 29.73 in 5.0 mi East 13.8 mph - N/A   Light Drizzle
7:29 PM 44.6 °F 38.8 °F 41.0 °F 87% 29.72 in 5.0 mi East 11.5 mph - N/A   Light Drizzle
7:30 PM 44.6 °F 39.2 °F 41.0 °F 87% 29.72 in 5.0 mi East 10.4 mph - N/A   Light Drizzle
7:34 PM 44.6 °F 38.4 °F 41.0 °F 87% 29.71 in 5.0 mi East 12.7 mph - N/A   Light Drizzle
7:58 PM 45.3 °F 40.6 °F 41.4 °F 86% 29.71 in 5.0 mi East 9.2 mph 18.4 mph N/A Rain Light Rain
8:46 PM 44.6 °F 39.7 °F 41.0 °F 87% 29.66 in 4.0 mi East 9.2 mph - N/A Rain Light Rain
8:56 PM 44.6 °F 40.7 °F 41.0 °F 87% 29.65 in 4.0 mi East 6.9 mph - N/A Rain Light Rain
8:58 PM 44.6 °F 39.7 °F 41.9 °F 90% 29.66 in 4.0 mi East 9.2 mph - N/A Rain Light Rain
9:38 PM 44.6 °F 40.7 °F 42.8 °F 93% 29.60 in 3.0 mi East 6.9 mph - N/A Rain Light Rain
9:48 PM 46.4 °F 41.1 °F 42.8 °F 87% 29.58 in 3.0 mi ESE 11.5 mph - N/A Rain Light Rain
9:58 PM 45.7 °F 39.8 °F 43.2 °F 91% 29.58 in 4.0 mi ESE 12.7 mph - N/A Rain Light Rain
10:58 PM 46.4 °F 43.5 °F 45.0 °F 95% 29.53 in 3.0 mi ESE 5.8 mph - N/A Rain Light Rain
11:18 PM 46.4 °F 38.5 °F 44.6 °F 93% 29.56 in 3.0 mi West 21.9 mph - N/A Rain Light Rain
11:28 PM 46.4 °F 43.5 °F 44.6 °F 93% 29.55 in 1.5 mi SW 5.8 mph - N/A Rain Rain
11:38 PM 46.4 °F 42.4 °F 46.4 °F 100% 29.53 in 2.5 mi SE 8.1 mph - N/A Rain Light Rain
11:48 PM 48.2 °F - 46.4 °F 93% 29.52 in 4.0 mi SSE 12.7 mph - N/A Rain Light Rain
11:52 PM 48.2 °F - 46.4 °F 93% 29.52 in 5.0 mi SSE 11.5 mph - N/A Rain Light Rain
11:58 PM 48.4 °F - 46.9 °F 95% 29.52 in 5.0 mi SSE 9.2 mph - N/A Rain Light Rain